This demonstration page uses our WeatherBlox Daily Observations layout. Learn more.

Left ArrowRight Arrow

41.55636, -103.73856

Hourly Observations for December 23, 2021

Temp ( °F °C ) Dew Point ( °F °C ) Humidity (%) Winds ( mph kmh ) Pressure ( in mb ) Visibility ( mi km ) Precip ( " mm )
12:58 am 00:58 Mostly Cloudy 36 2.1 7 -14 30 30 W 9 15 29.80 1009 10 16 0.00 0.00
1:58 am 01:58 Mostly Cloudy 40 4.6 7 -13.9 25 25 W 8 13 29.79 1009 10 16 0.00 0.00
2:58 am 02:58 Mostly Cloudy 40 4.7 7 -14.1 24 24 WNW 8 13 29.80 1009 10 16 0.00 0.00
3:58 am 03:58 Mostly Cloudy 38 3.4 7 -14.1 27 27 SSW 5 7 29.80 1009 10 16 0.00 0.00
4:58 am 04:58 Mostly Cloudy 35 1.6 7 -13.8 31 31 SSW 5 7 29.82 1010 10 16 0.00 0.00
5:58 am 05:58 Mostly Cloudy 40 4.3 6 -14.3 25 25 Calm 29.81 1009 10 16 0.00 0.00
6:58 am 06:58 Mostly Cloudy 42 5.6 6 -14.4 22 22 WSW 7 11 29.79 1009 10 16 0.00 0.00
7:58 am 07:58 Mostly Sunny 36 2.4 8 -13.1 31 31 SSW 12 19 29.81 1009 10 16 0.00 0.00
8:58 am 08:58 Sunny 45 7.2 8 -13.3 22 22 SSW 10 17 29.78 1008 10 16 0.00 0.00
9:58 am 09:58 Mostly Cloudy 52 11 7 -13.9 16 16 SW 20 31 29.78 1008 10 16 0.00 0.00
10:58 am 10:58 Mostly Cloudy 54 12.2 17 -8.4 23 23 WSW 18 30 29.74 1007 10 16 0.00 0.00
11:58 am 11:58 Mostly Cloudy 56 13.1 20 -6.9 24 24 WNW 7 11 29.69 1006 10 16 0.00 0.00
12:58 pm 12:58 Sunny 59 14.8 22 -5.7 24 24 WNW 24 39 29.63 1003 10 16 0.00 0.00
1:58 pm 13:58 Mostly Sunny 61 16.3 22 -5.4 22 22 WSW 22 35 29.60 1002 10 16 0.00 0.00
2:58 pm 14:58 Partly Cloudy 58 14.6 24 -4.5 27 27 W 23 37 29.59 1002 10 16 0.00 0.00
3:58 pm 15:58 Mostly Cloudy 56 13.2 24 -4.4 29 29 WSW 14 22 29.59 1002 10 16 0.00 0.00
4:58 pm 16:58 Mostly Cloudy 49 9.7 21 -6.2 32 32 S 10 17 29.58 1002 10 16 0.00 0.00
5:58 pm 17:58 Clear 47 8.6 22 -5.5 37 37 SSW 21 33 29.53 1000 10 16 0.00 0.00
6:58 pm 18:58 Clear 49 9.4 22 -5.3 35 35 SSW 23 37 29.50 999 10 16 0.00 0.00
7:58 pm 19:58 Clear 49 9.6 26 -3.6 40 40 SW 25 41 29.48 998 10 16 0.00 0.00
8:58 pm 20:58 Clear 50 9.8 27 -2.8 41 41 SW 30 48 29.41 996 10 16 0.00 0.00
9:58 pm 21:58 Clear 47 8.6 28 -2.5 46 46 SW 28 44 29.37 995 10 16 0.00 0.00
10:58 pm 22:58 Partly Cloudy 47 8.5 28 -2.5 46 46 SW 22 35 29.36 994 10 16 0.00 0.00
11:58 pm 23:58 Mostly Cloudy 47 8.5 28 -2.1 48 48 WSW 10 17 29.35 994 10 16 0.00 0.00

Powered by AerisWeather